Date_Time,Julian_Date,Latitude,Longitude,Instrument_Depth,U,V,Speed,Direction
(yyyy-mm-dd hh:mn:ss UTC),(JD),(+ deg. North),(+ deg. East),(m),(cm/s),(cm/s),(cm/s),(deg True)
1985-05-06 16:34:00 UTC,2446192.190278,25.8867,-84.3197,0100,-0.85,-5.00,5.0717,189.6481
1985-05-06 17:04:00 UTC,2446192.211111,25.8867,-84.3197,0100,-0.80,-5.00,5.0636,189.0903
1985-05-06 17:34:00 UTC,2446192.231944,25.8867,-84.3197,0100,-4.20,-2.93,5.1210,235.0996
1985-05-06 18:04:00 UTC,2446192.252778,25.8867,-84.3197,0100,-13.75,-2.38,13.9545,260.1799
1985-05-06 18:34:00 UTC,2446192.273611,25.8867,-84.3197,0100,-15.20,1.20,15.2473,274.5140
1985-05-06 19:04:00 UTC,2446192.294444,25.8867,-84.3197,0100,-20.20,2.00,20.2988,275.6544
1985-05-06 19:34:00 UTC,2446192.315278,25.8867,-84.3197,0100,-19.90,3.90,20.2786,281.0883
1985-05-06 20:04:00 UTC,2446192.336111,25.8867,-84.3197,0100,-19.40,5.70,20.2200,286.3736
1985-05-06 20:34:00 UTC,2446192.356944,25.8867,-84.3197,0100,-23.60,5.10,24.1448,282.1942
1985-05-06 21:04:00 UTC,2446192.377778,25.8867,-84.3197,0100,-23.00,7.20,24.1006,287.3824
1985-05-06 21:34:00 UTC,2446192.398611,25.8867,-84.3197,0100,-22.10,9.63,24.1070,293.5450
1985-05-06 22:04:00 UTC,2446192.419444,25.8867,-84.3197,0100,-20.90,12.00,24.1000,299.8629
1985-05-06 22:34:00 UTC,2446192.440278,25.8867,-84.3197,0100,-17.45,16.60,24.0845,313.5700
1985-05-06 23:04:00 UTC,2446192.461111,25.8867,-84.3197,0100,-15.00,18.80,24.0508,321.4146
1985-05-06 23:34:00 UTC,2446192.481944,25.8867,-84.3197,0100,-14.50,19.20,24.0601,322.9396
1985-05-07 00:04:00 UTC,2446192.502778,25.8867,-84.3197,0100,-12.40,20.60,24.0441,328.9545
1985-05-07 00:34:00 UTC,2446192.523611,25.8867,-84.3197,0100,-10.20,21.80,24.0682,334.9256
1985-05-07 01:04:00 UTC,2446192.544444,25.8867,-84.3197,0100,-7.40,25.40,26.4560,343.7571
1985-05-07 01:34:00 UTC,2446192.565278,25.8867,-84.3197,0100,-7.78,27.20,28.2908,344.0379
1985-05-07 02:04:00 UTC,2446192.586111,25.8867,-84.3197,0100,-4.10,28.60,28.8924,351.8419
1985-05-07 02:34:00 UTC,2446192.606944,25.8867,-84.3197,0100,-4.68,30.35,30.7087,351.2340
1985-05-07 03:04:00 UTC,2446192.627778,25.8867,-84.3197,0100,-3.03,31.80,31.9440,354.5571
1985-05-07 03:34:00 UTC,2446192.648611,25.8867,-84.3197,0100,-1.68,33.70,33.7419,357.1461
1985-05-07 04:04:00 UTC,2446192.669444,25.8867,-84.3197,0100,0.00,33.70,33.7000,0.0000
1985-05-07 04:34:00 UTC,2446192.690278,25.8867,-84.3197,0100,2.85,30.57,30.7026,5.3262
1985-05-07 05:04:00 UTC,2446192.711111,25.8867,-84.3197,0100,4.23,30.40,30.6929,7.9215
1985-05-07 05:34:00 UTC,2446192.731944,25.8867,-84.3197,0100,6.00,30.70,31.2808,11.0585
1985-05-07 06:04:00 UTC,2446192.752778,25.8867,-84.3197,0100,8.55,32.60,33.7026,14.6960
1985-05-07 06:34:00 UTC,2446192.773611,25.8867,-84.3197,0100,8.80,30.00,31.2640,16.3482
1985-05-07 07:04:00 UTC,2446192.794444,25.8867,-84.3197,0100,9.13,29.90,31.2629,16.9801
1985-05-07 07:34:00 UTC,2446192.815278,25.8867,-84.3197,0100,8.20,27.70,28.8882,16.4903
1985-05-07 08:04:00 UTC,2446192.836111,25.8867,-84.3197,0100,6.93,23.60,24.5964,16.3646
1985-05-07 08:34:00 UTC,2446192.856944,25.8867,-84.3197,0100,7.30,22.85,23.9878,17.7174
1985-05-07 09:04:00 UTC,2446192.877778,25.8867,-84.3197,0100,4.60,14.35,15.0693,17.7736
1985-05-07 09:34:00 UTC,2446192.898611,25.8867,-84.3197,0100,6.50,13.60,15.0735,25.5451
1985-05-07 10:04:00 UTC,2446192.919444,25.8867,-84.3197,0100,7.53,14.50,16.3386,27.4433
1985-05-07 10:34:00 UTC,2446192.940278,25.8867,-84.3197,0100,11.60,16.40,20.0878,35.2724
1985-05-07 11:04:00 UTC,2446192.961111,25.8867,-84.3197,0100,12.08,14.48,18.8573,39.8367
1985-05-07 11:34:00 UTC,2446192.981944,25.8867,-84.3197,0100,9.30,11.90,15.1030,38.0081
1985-05-07 12:04:00 UTC,2446193.002778,25.8867,-84.3197,0100,12.43,10.65,16.3685,49.4101
1985-05-07 12:34:00 UTC,2446193.023611,25.8867,-84.3197,0100,12.10,9.00,15.0801,53.3581
1985-05-07 13:04:00 UTC,2446193.044444,25.8867,-84.3197,0100,11.22,8.08,13.8266,54.2407
1985-05-07 13:34:00 UTC,2446193.065278,25.8867,-84.3197,0100,13.40,6.95,15.0951,62.5862
1985-05-07 14:04:00 UTC,2446193.086111,25.8867,-84.3197,0100,12.98,4.68,13.7979,70.1730
1985-05-07 14:34:00 UTC,2446193.106944,25.8867,-84.3197,0100,14.88,2.75,15.1320,79.5292
1985-05-07 15:04:00 UTC,2446193.127778,25.8867,-84.3197,0100,8.75,0.43,8.7606,87.1866
1985-05-07 15:34:00 UTC,2446193.148611,25.8867,-84.3197,0100,7.50,0.00,7.5000,90.0000
1985-05-07 16:04:00 UTC,2446193.169444,25.8867,-84.3197,0100,8.63,1.48,8.7560,80.2687
1985-05-07 16:34:00 UTC,2446193.190278,25.8867,-84.3197,0100,6.25,0.28,6.2563,87.4349
1985-05-07 17:04:00 UTC,2446193.211111,25.8867,-84.3197,0100,5.00,0.50,5.0249,84.2894
1985-05-07 17:34:00 UTC,2446193.231944,25.8867,-84.3197,0100,4.70,1.68,4.9912,70.3307
1985-05-07 18:04:00 UTC,2446193.252778,25.8867,-84.3197,0100,4.35,2.50,5.0172,60.1135
1985-05-07 18:34:00 UTC,2446193.273611,25.8867,-84.3197,0100,3.80,3.25,5.0002,49.4608
1985-05-07 19:04:00 UTC,2446193.294444,25.8867,-84.3197,0100,0.00,0.00,0.0000,0.0000
1985-05-07 19:34:00 UTC,2446193.315278,25.8867,-84.3197,0100,0.33,1.20,1.2445,15.3763
1985-05-07 20:04:00 UTC,2446193.336111,25.8867,-84.3197,0100,-5.00,-1.02,5.1030,258.4699
1985-05-07 20:34:00 UTC,2446193.356944,25.8867,-84.3197,0100,-5.10,-0.60,5.1352,263.2902
1985-05-07 21:04:00 UTC,2446193.377778,25.8867,-84.3197,0100,-9.95,-2.15,10.1796,257.8070
1985-05-07 21:34:00 UTC,2446193.398611,25.8867,-84.3197,0100,-11.20,-2.38,11.4501,258.0031
1985-05-07 22:04:00 UTC,2446193.419444,25.8867,-84.3197,0100,-15.13,-1.63,15.2175,263.8511
1985-05-07 22:34:00 UTC,2446193.440278,25.8867,-84.3197,0100,-15.20,-0.30,15.2030,268.8693
1985-05-07 23:04:00 UTC,2446193.461111,25.8867,-84.3197,0100,-15.18,1.28,15.2339,274.8199
1985-05-07 23:34:00 UTC,2446193.481944,25.8867,-84.3197,0100,-16.22,2.93,16.4825,280.2396
1985-05-08 00:04:00 UTC,2446193.502778,25.8867,-84.3197,0100,-19.10,6.60,20.2082,289.0626
1985-05-08 00:34:00 UTC,2446193.523611,25.8867,-84.3197,0100,-17.70,9.80,20.2319,298.9721
1985-05-08 01:04:00 UTC,2446193.544444,25.8867,-84.3197,0100,-15.30,13.20,20.2072,310.7858
1985-05-08 01:34:00 UTC,2446193.565278,25.8867,-84.3197,0100,-12.40,20.60,24.0441,328.9545
1985-05-08 02:04:00 UTC,2446193.586111,25.8867,-84.3197,0100,-11.10,21.30,24.0187,332.4748
1985-05-08 02:34:00 UTC,2446193.606944,25.8867,-84.3197,0100,-8.08,24.58,25.8740,341.8031
1985-05-08 03:04:00 UTC,2446193.627778,25.8867,-84.3197,0100,-6.30,25.70,26.4609,346.2263
1985-05-08 03:34:00 UTC,2446193.648611,25.8867,-84.3197,0100,-4.00,23.70,24.0352,350.4201
1985-05-08 04:04:00 UTC,2446193.669444,25.8867,-84.3197,0100,-1.30,26.40,26.4320,357.1809
1985-05-08 04:34:00 UTC,2446193.690278,25.8867,-84.3197,0100,-1.32,27.00,27.0322,357.2011
1985-05-08 05:04:00 UTC,2446193.711111,25.8867,-84.3197,0100,0.00,26.50,26.5000,0.0000
1985-05-08 05:34:00 UTC,2446193.731944,25.8867,-84.3197,0100,1.93,27.55,27.6175,4.0073
1985-05-08 06:04:00 UTC,2446193.752778,25.8867,-84.3197,0100,1.18,25.80,25.8270,2.6187
1985-05-08 06:34:00 UTC,2446193.773611,25.8867,-84.3197,0100,0.00,24.00,24.0000,0.0000
1985-05-08 07:04:00 UTC,2446193.794444,25.8867,-84.3197,0100,0.00,20.20,20.2000,0.0000
1985-05-08 07:34:00 UTC,2446193.815278,25.8867,-84.3197,0100,0.00,24.00,24.0000,0.0000
1985-05-08 08:04:00 UTC,2446193.836111,25.8867,-84.3197,0100,-1.20,24.00,24.0300,357.1376
1985-05-08 08:34:00 UTC,2446193.856944,25.8867,-84.3197,0100,2.13,22.95,23.0486,5.3025
1985-05-08 09:04:00 UTC,2446193.877778,25.8867,-84.3197,0100,0.00,24.00,24.0000,0.0000
1985-05-08 09:34:00 UTC,2446193.898611,25.8867,-84.3197,0100,1.32,23.00,23.0378,3.2847
1985-05-08 10:04:00 UTC,2446193.919444,25.8867,-84.3197,0100,1.15,20.10,20.1329,3.2745
1985-05-08 10:34:00 UTC,2446193.940278,25.8867,-84.3197,0100,2.80,19.90,20.0960,8.0091
1985-05-08 11:04:00 UTC,2446193.961111,25.8867,-84.3197,0100,2.80,14.80,15.0625,10.7131
1985-05-08 11:34:00 UTC,2446193.981944,25.8867,-84.3197,0100,3.50,14.70,15.1109,13.3925
1985-05-08 12:04:00 UTC,2446194.002778,25.8867,-84.3197,0100,5.00,14.20,15.0546,19.3978
1985-05-08 12:34:00 UTC,2446194.023611,25.8867,-84.3197,0100,2.60,9.70,10.0424,15.0049
1985-05-08 13:04:00 UTC,2446194.044444,25.8867,-84.3197,0100,2.80,9.60,10.0000,16.2602
1985-05-08 13:34:00 UTC,2446194.065278,25.8867,-84.3197,0100,1.80,9.90,10.0623,10.3048
1985-05-08 14:04:00 UTC,2446194.086111,25.8867,-84.3197,0100,1.80,9.90,10.0623,10.3048
1985-05-08 14:34:00 UTC,2446194.106944,25.8867,-84.3197,0100,1.93,9.88,10.0667,11.0532
1985-05-08 15:04:00 UTC,2446194.127778,25.8867,-84.3197,0100,5.48,9.88,11.2980,29.0152
1985-05-08 15:34:00 UTC,2446194.148611,25.8867,-84.3197,0100,6.30,7.80,10.0265,38.9275
1985-05-08 16:04:00 UTC,2446194.169444,25.8867,-84.3197,0100,4.20,9.10,10.0225,24.7751
1985-05-08 16:34:00 UTC,2446194.190278,25.8867,-84.3197,0100,4.60,8.90,10.0185,27.3324
1985-05-08 17:04:00 UTC,2446194.211111,25.8867,-84.3197,0100,3.80,9.30,10.0464,22.2250
1985-05-08 17:34:00 UTC,2446194.231944,25.8867,-84.3197,0100,3.30,9.50,10.0568,19.1556
1985-05-08 18:04:00 UTC,2446194.252778,25.8867,-84.3197,0100,2.40,9.80,10.0896,13.7608
1985-05-08 18:34:00 UTC,2446194.273611,25.8867,-84.3197,0100,3.80,9.30,10.0464,22.2250
1985-05-08 19:04:00 UTC,2446194.294444,25.8867,-84.3197,0100,5.18,10.03,11.2886,27.3141
1985-05-08 19:34:00 UTC,2446194.315278,25.8867,-84.3197,0100,1.93,8.60,8.8139,12.6487
1985-05-08 20:04:00 UTC,2446194.336111,25.8867,-84.3197,0100,1.13,6.15,6.2530,10.4114
1985-05-08 20:34:00 UTC,2446194.356944,25.8867,-84.3197,0100,1.05,4.90,5.0112,12.0948
1985-05-08 21:04:00 UTC,2446194.377778,25.8867,-84.3197,0100,1.10,4.90,5.0220,12.6526
1985-05-08 21:34:00 UTC,2446194.398611,25.8867,-84.3197,0100,0.80,4.90,4.9649,9.2726
1985-05-08 22:04:00 UTC,2446194.419444,25.8867,-84.3197,0100,-0.30,5.00,5.0090,356.5664
1985-05-08 22:34:00 UTC,2446194.440278,25.8867,-84.3197,0100,-1.00,4.90,5.0010,348.4654
1985-05-08 23:04:00 UTC,2446194.461111,25.8867,-84.3197,0100,-1.20,4.90,5.0448,346.2392
1985-05-08 23:34:00 UTC,2446194.481944,25.8867,-84.3197,0100,-3.10,3.90,4.9820,321.5198
1985-05-09 00:04:00 UTC,2446194.502778,25.8867,-84.3197,0100,-4.50,2.35,5.0767,297.5746
1985-05-09 00:34:00 UTC,2446194.523611,25.8867,-84.3197,0100,-8.85,4.80,10.0679,298.4742
1985-05-09 01:04:00 UTC,2446194.544444,25.8867,-84.3197,0100,-7.55,6.75,10.1274,311.7980
1985-05-09 01:34:00 UTC,2446194.565278,25.8867,-84.3197,0100,-6.75,7.50,10.0902,318.0128
1985-05-09 02:04:00 UTC,2446194.586111,25.8867,-84.3197,0100,-7.38,10.20,12.5899,324.1132
1985-05-09 02:34:00 UTC,2446194.606944,25.8867,-84.3197,0100,-5.20,11.48,12.6028,335.6313
1985-05-09 03:04:00 UTC,2446194.627778,25.8867,-84.3197,0100,-5.88,12.55,13.8592,334.8957
1985-05-09 03:34:00 UTC,2446194.648611,25.8867,-84.3197,0100,-6.85,13.45,15.0939,333.0106
1985-05-09 04:04:00 UTC,2446194.669444,25.8867,-84.3197,0100,-11.10,21.30,24.0187,332.4748
1985-05-09 04:34:00 UTC,2446194.690278,25.8867,-84.3197,0100,-10.20,21.80,24.0682,334.9256
1985-05-09 05:04:00 UTC,2446194.711111,25.8867,-84.3197,0100,-9.43,22.78,24.6547,337.5124
1985-05-09 05:34:00 UTC,2446194.731944,25.8867,-84.3197,0100,-8.33,25.13,26.4746,341.6609
1985-05-09 06:04:00 UTC,2446194.752778,25.8867,-84.3197,0100,-7.85,27.18,28.2909,343.8905
1985-05-09 06:34:00 UTC,2446194.773611,25.8867,-84.3197,0100,-7.98,27.15,28.2985,343.6208
1985-05-09 07:04:00 UTC,2446194.794444,25.8867,-84.3197,0100,-4.60,29.75,30.1035,351.2104
1985-05-09 07:34:00 UTC,2446194.815278,25.8867,-84.3197,0100,-1.40,28.80,28.8340,357.2170
1985-05-09 08:04:00 UTC,2446194.836111,25.8867,-84.3197,0100,1.40,31.30,31.3313,2.5610
1985-05-09 08:34:00 UTC,2446194.856944,25.8867,-84.3197,0100,0.00,31.30,31.3000,0.0000
1985-05-09 09:04:00 UTC,2446194.877778,25.8867,-84.3197,0100,1.48,32.50,32.5337,2.6074
1985-05-09 09:34:00 UTC,2446194.898611,25.8867,-84.3197,0100,4.80,33.40,33.7431,8.1781
1985-05-09 10:04:00 UTC,2446194.919444,25.8867,-84.3197,0100,6.30,33.10,33.6942,10.7763
1985-05-09 10:34:00 UTC,2446194.940278,25.8867,-84.3197,0100,6.30,33.10,33.6942,10.7763
1985-05-09 11:04:00 UTC,2446194.961111,25.8867,-84.3197,0100,6.70,30.55,31.2761,12.3698
1985-05-09 11:34:00 UTC,2446194.981944,25.8867,-84.3197,0100,7.40,30.40,31.2877,13.6809
1985-05-09 12:04:00 UTC,2446195.002778,25.8867,-84.3197,0100,15.15,30.10,33.6977,26.7171
1985-05-09 12:34:00 UTC,2446195.023611,25.8867,-84.3197,0100,15.95,29.70,33.7119,28.2374
1985-05-09 13:04:00 UTC,2446195.044444,25.8867,-84.3197,0100,17.45,25.98,31.2964,33.8881
1985-05-09 13:34:00 UTC,2446195.065278,25.8867,-84.3197,0100,17.70,25.80,31.2879,34.4519
1985-05-09 14:04:00 UTC,2446195.086111,25.8867,-84.3197,0100,18.73,25.03,31.2620,36.8076
1985-05-09 14:34:00 UTC,2446195.106944,25.8867,-84.3197,0100,21.00,23.20,31.2928,42.1505
1985-05-09 15:04:00 UTC,2446195.127778,25.8867,-84.3197,0100,18.30,22.25,28.8089,39.4363
1985-05-09 15:34:00 UTC,2446195.148611,25.8867,-84.3197,0100,18.90,18.50,26.4473,45.6128
1985-05-09 16:04:00 UTC,2446195.169444,25.8867,-84.3197,0100,18.90,18.50,26.4473,45.6128
1985-05-09 16:34:00 UTC,2446195.190278,25.8867,-84.3197,0100,15.60,18.20,23.9708,40.6013
1985-05-09 17:04:00 UTC,2446195.211111,25.8867,-84.3197,0100,15.47,17.05,23.0222,42.2184
1985-05-09 17:34:00 UTC,2446195.231944,25.8867,-84.3197,0100,13.70,14.70,20.0943,42.9834
1985-05-09 18:04:00 UTC,2446195.252778,25.8867,-84.3197,0100,11.50,9.80,15.1093,49.5632
1985-05-09 18:34:00 UTC,2446195.273611,25.8867,-84.3197,0100,18.90,18.50,26.4473,45.6128
1985-05-09 19:04:00 UTC,2446195.294444,25.8867,-84.3197,0100,15.63,12.70,20.1392,50.9048
1985-05-09 19:34:00 UTC,2446195.315278,25.8867,-84.3197,0100,11.43,7.83,13.8547,55.5873
1985-05-09 20:04:00 UTC,2446195.336111,25.8867,-84.3197,0100,4.40,2.40,5.0120,61.3895
1985-05-09 20:34:00 UTC,2446195.356944,25.8867,-84.3197,0100,4.10,2.80,4.9649,55.6698
1985-05-09 21:04:00 UTC,2446195.377778,25.8867,-84.3197,0100,3.70,3.40,5.0249,47.4195
1985-05-09 21:34:00 UTC,2446195.398611,25.8867,-84.3197,0100,2.85,4.13,5.0179,34.6085
1985-05-09 22:04:00 UTC,2446195.419444,25.8867,-84.3197,0100,1.15,3.55,3.7316,17.9494
1985-05-09 22:34:00 UTC,2446195.440278,25.8867,-84.3197,0100,-4.80,1.60,5.0596,288.4349
1985-05-09 23:04:00 UTC,2446195.461111,25.8867,-84.3197,0100,-5.98,2.05,6.3216,288.9222
1985-05-09 23:34:00 UTC,2446195.481944,25.8867,-84.3197,0100,-4.75,1.73,5.0552,290.0121
1985-05-10 00:04:00 UTC,2446195.502778,25.8867,-84.3197,0100,-2.88,6.95,7.5231,337.4915
1985-05-10 00:34:00 UTC,2446195.523611,25.8867,-84.3197,0100,-1.00,10.00,10.0499,354.2894
1985-05-10 01:04:00 UTC,2446195.544444,25.8867,-84.3197,0100,-5.38,8.55,10.1018,327.8203
1985-05-10 01:34:00 UTC,2446195.565278,25.8867,-84.3197,0100,-1.93,11.13,11.2961,350.1624
1985-05-10 02:04:00 UTC,2446195.586111,25.8867,-84.3197,0100,-2.95,10.98,11.3694,344.9615
1985-05-10 02:34:00 UTC,2446195.606944,25.8867,-84.3197,0100,-6.25,13.78,15.1311,335.6031
1985-05-10 03:04:00 UTC,2446195.627778,25.8867,-84.3197,0100,-7.15,17.53,18.9321,337.8108
1985-05-10 03:34:00 UTC,2446195.648611,25.8867,-84.3197,0100,-6.90,23.00,24.0127,343.3008
1985-05-10 04:04:00 UTC,2446195.669444,25.8867,-84.3197,0100,-4.50,23.60,24.0252,349.2046
1985-05-10 04:34:00 UTC,2446195.690278,25.8867,-84.3197,0100,-6.40,21.15,22.0971,343.1642
1985-05-10 05:04:00 UTC,2446195.711111,25.8867,-84.3197,0100,-7.90,22.70,24.0354,340.8112
1985-05-10 05:34:00 UTC,2446195.731944,25.8867,-84.3197,0100,-9.38,24.10,25.8611,338.7334
1985-05-10 06:04:00 UTC,2446195.752778,25.8867,-84.3197,0100,-10.18,25.07,27.0580,337.8997
1985-05-10 06:34:00 UTC,2446195.773611,25.8867,-84.3197,0100,-6.80,28.07,28.8819,346.3824
1985-05-10 07:04:00 UTC,2446195.794444,25.8867,-84.3197,0100,-5.60,29.60,30.1251,349.2869
1985-05-10 07:34:00 UTC,2446195.815278,25.8867,-84.3197,0100,-9.15,31.20,32.5140,343.6552
1985-05-10 08:04:00 UTC,2446195.836111,25.8867,-84.3197,0100,-6.60,34.90,35.5186,349.2912
1985-05-10 08:34:00 UTC,2446195.856944,25.8867,-84.3197,0100,-5.45,37.35,37.7455,351.6982
1985-05-10 09:04:00 UTC,2446195.877778,25.8867,-84.3197,0100,-5.33,34.23,34.6425,351.1495
1985-05-10 09:34:00 UTC,2446195.898611,25.8867,-84.3197,0100,-1.73,35.95,35.9916,357.2449
1985-05-10 10:04:00 UTC,2446195.919444,25.8867,-84.3197,0100,-1.57,33.10,33.1372,357.2844
1985-05-10 10:34:00 UTC,2446195.940278,25.8867,-84.3197,0100,1.60,34.60,34.6370,2.6476
1985-05-10 11:04:00 UTC,2446195.961111,25.8867,-84.3197,0100,3.33,35.85,36.0043,5.3068
1985-05-10 11:34:00 UTC,2446195.981944,25.8867,-84.3197,0100,4.20,31.63,31.9076,7.5638
1985-05-10 12:04:00 UTC,2446196.002778,25.8867,-84.3197,0100,1.33,29.43,29.4600,2.5875
1985-05-10 12:34:00 UTC,2446196.023611,25.8867,-84.3197,0100,7.75,30.30,31.2754,14.3473
1985-05-10 13:04:00 UTC,2446196.044444,25.8867,-84.3197,0100,8.80,30.00,31.2640,16.3482
1985-05-10 13:34:00 UTC,2446196.065278,25.8867,-84.3197,0100,12.70,27.25,30.0641,24.9881
1985-05-10 14:04:00 UTC,2446196.086111,25.8867,-84.3197,0100,13.15,25.03,28.2741,27.7161
1985-05-10 14:34:00 UTC,2446196.106944,25.8867,-84.3197,0100,11.88,24.25,27.0036,26.1001
1985-05-10 15:04:00 UTC,2446196.127778,25.8867,-84.3197,0100,12.15,22.08,25.2022,28.8227
1985-05-10 15:34:00 UTC,2446196.148611,25.8867,-84.3197,0100,9.97,18.28,20.8221,28.6083
1985-05-10 16:04:00 UTC,2446196.169444,25.8867,-84.3197,0100,10.50,17.20,20.1517,31.4026
1985-05-10 16:34:00 UTC,2446196.190278,25.8867,-84.3197,0100,8.63,13.90,16.3611,31.8346
1985-05-10 17:04:00 UTC,2446196.211111,25.8867,-84.3197,0100,5.70,8.20,9.9865,34.8040
1985-05-10 17:34:00 UTC,2446196.231944,25.8867,-84.3197,0100,9.50,11.75,15.1100,38.9559
1985-05-10 18:04:00 UTC,2446196.252778,25.8867,-84.3197,0100,5.85,8.10,9.9916,35.8377
1985-05-10 18:34:00 UTC,2446196.273611,25.8867,-84.3197,0100,5.25,8.58,10.0588,31.4620
1985-05-10 19:04:00 UTC,2446196.294444,25.8867,-84.3197,0100,9.50,11.75,15.1100,38.9559
1985-05-10 19:34:00 UTC,2446196.315278,25.8867,-84.3197,0100,5.55,8.35,10.0262,33.6108
1985-05-10 20:04:00 UTC,2446196.336111,25.8867,-84.3197,0100,3.60,5.13,6.2671,35.0594
1985-05-10 20:34:00 UTC,2446196.356944,25.8867,-84.3197,0100,3.20,3.90,5.0448,39.3693
1985-05-10 21:04:00 UTC,2446196.377778,25.8867,-84.3197,0100,2.98,4.05,5.0282,36.3457
1985-05-10 21:34:00 UTC,2446196.398611,25.8867,-84.3197,0100,5.80,4.75,7.4968,50.6837
1985-05-10 22:04:00 UTC,2446196.419444,25.8867,-84.3197,0100,3.38,3.63,4.9600,42.9575
1985-05-10 22:34:00 UTC,2446196.440278,25.8867,-84.3197,0100,2.55,4.25,4.9563,30.9638
1985-05-10 23:04:00 UTC,2446196.461111,25.8867,-84.3197,0100,1.40,4.80,5.0000,16.2602
1985-05-10 23:34:00 UTC,2446196.481944,25.8867,-84.3197,0100,-1.20,4.90,5.0448,346.2392
1985-05-11 00:04:00 UTC,2446196.502778,25.8867,-84.3197,0100,-1.90,4.60,4.9769,337.5573
1985-05-11 00:34:00 UTC,2446196.523611,25.8867,-84.3197,0100,-2.90,4.10,5.0220,324.7276
1985-05-11 01:04:00 UTC,2446196.544444,25.8867,-84.3197,0100,-3.08,3.95,5.0089,322.0548
1985-05-11 01:34:00 UTC,2446196.565278,25.8867,-84.3197,0100,-5.18,7.13,8.8130,324.0013
1985-05-11 02:04:00 UTC,2446196.586111,25.8867,-84.3197,0100,-5.18,7.13,8.8130,324.0013
1985-05-11 02:34:00 UTC,2446196.606944,25.8867,-84.3197,0100,-9.20,12.00,15.1208,322.5238
1985-05-11 03:04:00 UTC,2446196.627778,25.8867,-84.3197,0100,-12.28,17.23,21.1582,324.5221
1985-05-11 03:34:00 UTC,2446196.648611,25.8867,-84.3197,0100,-14.35,20.85,25.3110,325.4623
1985-05-11 04:04:00 UTC,2446196.669444,25.8867,-84.3197,0100,-13.13,26.40,29.4849,333.5566
1985-05-11 04:34:00 UTC,2446196.690278,25.8867,-84.3197,0100,-13.20,28.40,31.3177,335.0715
1985-05-11 05:04:00 UTC,2446196.711111,25.8867,-84.3197,0100,-14.75,27.57,31.2677,331.8531
1985-05-11 05:34:00 UTC,2446196.731944,25.8867,-84.3197,0100,-13.20,28.40,31.3177,335.0715
1985-05-11 06:04:00 UTC,2446196.752778,25.8867,-84.3197,0100,-12.70,31.30,33.7784,337.9151
1985-05-11 06:34:00 UTC,2446196.773611,25.8867,-84.3197,0100,-10.20,34.10,35.5928,343.3470
1985-05-11 07:04:00 UTC,2446196.794444,25.8867,-84.3197,0100,-6.95,35.75,36.4193,348.9986
1985-05-11 07:34:00 UTC,2446196.815278,25.8867,-84.3197,0100,-5.60,38.70,39.1031,351.7663
1985-05-11 08:04:00 UTC,2446196.836111,25.8867,-84.3197,0100,-7.10,36.60,37.2823,349.0216
1985-05-11 08:34:00 UTC,2446196.856944,25.8867,-84.3197,0100,-5.88,37.28,37.7409,351.0368
1985-05-11 09:04:00 UTC,2446196.877778,25.8867,-84.3197,0100,-5.50,37.80,38.1980,351.7214
1985-05-11 09:34:00 UTC,2446196.898611,25.8867,-84.3197,0100,-3.70,38.90,39.0756,354.5666
1985-05-11 10:04:00 UTC,2446196.919444,25.8867,-84.3197,0100,-4.78,36.58,36.8910,352.5552
1985-05-11 10:34:00 UTC,2446196.940278,25.8867,-84.3197,0100,-1.45,39.93,39.9563,357.9203
1985-05-11 11:04:00 UTC,2446196.961111,25.8867,-84.3197,0100,0.95,40.85,40.8610,1.3322
1985-05-11 11:34:00 UTC,2446196.981944,25.8867,-84.3197,0100,7.13,42.33,42.9263,9.5611
1985-05-11 12:04:00 UTC,2446197.002778,25.8867,-84.3197,0100,9.70,39.70,40.8678,13.7302
1985-05-11 12:34:00 UTC,2446197.023611,25.8867,-84.3197,0100,6.23,32.50,33.0917,10.8515
1985-05-11 13:04:00 UTC,2446197.044444,25.8867,-84.3197,0100,11.73,33.55,35.5415,19.2710
1985-05-11 13:34:00 UTC,2446197.065278,25.8867,-84.3197,0100,10.50,29.50,31.3129,19.5923
1985-05-11 14:04:00 UTC,2446197.086111,25.8867,-84.3197,0100,12.40,30.73,33.1375,21.9748
1985-05-11 14:34:00 UTC,2446197.106944,25.8867,-84.3197,0100,12.00,29.57,31.9121,22.0881
1985-05-11 15:04:00 UTC,2446197.127778,25.8867,-84.3197,0100,16.00,25.50,30.1040,32.1063
1985-05-11 15:34:00 UTC,2446197.148611,25.8867,-84.3197,0100,21.43,21.08,30.0601,45.4717
1985-05-11 16:04:00 UTC,2446197.169444,25.8867,-84.3197,0100,20.20,20.65,28.8871,44.3689
1985-05-11 16:34:00 UTC,2446197.190278,25.8867,-84.3197,0100,19.05,18.33,26.4366,46.1035
1985-05-11 17:04:00 UTC,2446197.211111,25.8867,-84.3197,0100,18.85,14.88,24.0153,51.7128
1985-05-11 17:34:00 UTC,2446197.231944,25.8867,-84.3197,0100,19.55,13.90,23.9878,54.5873
1985-05-11 18:04:00 UTC,2446197.252778,25.8867,-84.3197,0100,17.48,11.85,21.1181,55.8660
1985-05-11 18:34:00 UTC,2446197.273611,25.8867,-84.3197,0100,16.15,9.70,18.8391,59.0102
1985-05-11 19:04:00 UTC,2446197.294444,25.8867,-84.3197,0100,14.05,8.33,16.3337,59.3370
1985-05-11 19:34:00 UTC,2446197.315278,25.8867,-84.3197,0100,12.10,9.00,15.0801,53.3581
1985-05-11 20:04:00 UTC,2446197.336111,25.8867,-84.3197,0100,9.20,4.00,10.0319,66.5014
1985-05-11 20:34:00 UTC,2446197.356944,25.8867,-84.3197,0100,10.55,4.03,11.2935,69.0936
1985-05-11 21:04:00 UTC,2446197.377778,25.8867,-84.3197,0100,9.45,3.30,10.0096,70.7505
1985-05-11 21:34:00 UTC,2446197.398611,25.8867,-84.3197,0100,4.70,1.68,4.9912,70.3307
1985-05-11 22:04:00 UTC,2446197.419444,25.8867,-84.3197,0100,3.70,3.40,5.0249,47.4195
1985-05-11 22:34:00 UTC,2446197.440278,25.8867,-84.3197,0100,2.90,4.10,5.0220,35.2724
1985-05-11 23:04:00 UTC,2446197.461111,25.8867,-84.3197,0100,1.40,4.80,5.0000,16.2602
1985-05-11 23:34:00 UTC,2446197.481944,25.8867,-84.3197,0100,0.00,5.00,5.0000,0.0000
1985-05-12 00:04:00 UTC,2446197.502778,25.8867,-84.3197,0100,-1.20,4.90,5.0448,346.2392
1985-05-12 00:34:00 UTC,2446197.523611,25.8867,-84.3197,0100,-2.18,4.50,5.0002,334.1524
1985-05-12 01:04:00 UTC,2446197.544444,25.8867,-84.3197,0100,-2.38,5.78,6.2508,337.6199
1985-05-12 01:34:00 UTC,2446197.565278,25.8867,-84.3197,0100,-3.78,7.95,8.8029,334.5703
1985-05-12 02:04:00 UTC,2446197.586111,25.8867,-84.3197,0100,-4.50,9.00,10.0623,333.4349
1985-05-12 02:34:00 UTC,2446197.606944,25.8867,-84.3197,0100,-6.10,8.00,10.0603,322.6745
1985-05-12 03:04:00 UTC,2446197.627778,25.8867,-84.3197,0100,-10.20,11.20,15.1486,317.6754
1985-05-12 03:34:00 UTC,2446197.648611,25.8867,-84.3197,0100,-9.40,11.90,15.1648,321.6942
1985-05-12 04:04:00 UTC,2446197.669444,25.8867,-84.3197,0100,-11.75,16.40,20.1748,324.3798
1985-05-12 04:34:00 UTC,2446197.690278,25.8867,-84.3197,0100,-8.40,14.10,16.4125,329.2159
1985-05-12 05:04:00 UTC,2446197.711111,25.8867,-84.3197,0100,-8.98,19.15,21.1510,334.8767
1985-05-12 05:34:00 UTC,2446197.731944,25.8867,-84.3197,0100,-6.65,22.08,23.0597,343.2389
1985-05-12 06:04:00 UTC,2446197.752778,25.8867,-84.3197,0100,-6.30,25.70,26.4609,346.2263
1985-05-12 06:34:00 UTC,2446197.773611,25.8867,-84.3197,0100,-8.35,24.50,25.8838,341.1801